FLOCK 3P-18

Last updated on Wed Feb 14 2018 16:20:18 GMT+0000 (Greenwich Mean Time)

1 41957U 17008K 18045.44737100 .00003096 00000-0 13015-3 0 9997 2 41957 97.4646 110.9111 0010478 66.9583 293.2758 15.24133514 55257
UTC large
Height (km)
Speed (km/s)
/
Latitude / Longitude
Inclination (degrees)
Orbital Period (minutes)
Azimuth
Elevation
Range (km)
Doppler Factor

Next 0 passes for location: London (51.5072 / 0.1276)

Sorry there are no passes over London.